Location: Gull Harbor
(47.1000°N, 122.9000°W)
Time: 02:40:39
(UTC-08:00)

Envisat - Pass Details

Date: 23 October 2019
Orbit: 764 x 766 km, 98.1° (Epoch: 14 November)

Event Time Altitude Azimuth Distance (km) Brightness Sun altitude
Rises 20:19:25 0° 203° (SSW) 3,221 6.4 -22.7°
Reaches altitude 10° 20:22:13 10° 218° (SW) 2,300 5.8 -23.1°
Maximum altitude 20:26:06 22° 269° (W) 1,635 5.5 -23.8°
Drops below altitude 10° 20:30:00 10° 319° (NW) 2,313 6.1 -24.4°
Sets 20:32:51 0° 335° (NNW) 3,244 6.7 -24.9°
